Other Public Products
Issued by NWS Charleston, SC

Current Version | Previous Version | Text Only | Print | Product List | Glossary Off
Versions: 1 2 3 4 5 6 7 8 9 10 11 12 13 14 15 16 17 18 19 20 21 22 23 24 25 26 27 28 29 30 31 32 33 34 35 36 37 38 39 40 41 42 43 44 45 46 47 48 49 50
000 FPUS82 KCHS 272127 OPUCHS TEST...KCHS/KSAV Gateway Observations...TEST National Weather Service Charleston SC 500 PM EDT MON MAR 27 2017 NOTE: "fair" indicates few or no clouds below 12,000 feet with no significant weather and/or obstructions to visibility. SCZ050-WAZ558-NCZ071-TXZ119-213-PAZ071-DCZ001-FLZ074-172-MI076- NYZ176-178-MAZ016-IL014-TNZ027-NJZ106-GAZ044-MD014-272200- ...Gateway Observations for Charleston International... CITY SKY/WX TMP DP RH WIND PRES REMARKS Chas Airport MOSUNNY 77 57 50 S17 30.03F Seattle PTSUNNY 51 45 79 SW18G24 30.14R Charlotte PTSUNNY 78 56 46 SW13 29.98F Dallas DFW MOSUNNY 71 55 56 VRB5 29.87F Dallas Love MOSUNNY 71 54 54 N6 29.88F Philladelphia PTSUNNY 59 52 77 SW5 29.98F Wash National PTSUNNY 73 58 59 N5 29.94F Baltimore PTSUNNY 69 55 60 E7 29.95F Miami MOSUNNY 81 60 48 NE13G20 30.00F Detroit CLOUDY 62 49 62 SW9 29.89S Newark PTSUNNY 55 48 77 SW8 29.99S Laguardia PTSUNNY 47 42 83 NE9 29.99F J F K PTSUNNY 57 49 74 VRB7 30.00F Boston Logan CLOUDY 43 42 97 N6 30.00F Ft. Lauderdale PTSUNNY 79 58 48 NE10 30.00F Chicago O`Hare LGT RAIN 49 42 77 NE7 29.91R Chicago Midway CLOUDY 48 44 86 E6 29.91S Houston Bush MOSUNNY 84 65 52 S9 29.84F Houston Hobby MOSUNNY 83 66 56 S16 29.85F Nashville TSTM 65 59 81 SW9G31 29.87R Atlanta PTSUNNY 76 56 49 SW8 29.98F $$ GAZ044-118-TXZ119-213-NCZ071-DCZ001-MDZ014-506-PAZ021-071-NJZ106- NYZ176-178-MAZ106-OHZ011-021-055-MIZ076-KYZ091-ILZ014-INZ047- MNZ060-ONZ431-272200- ...Gateway Observations for Savannah International... CITY SKY/WX TMP DP RH WIND PRES REMARKS Savannah Arpt CLOUDY 76 59 55 SE16 30.03F Atlanta PTSUNNY 76 56 49 SW8 29.98F Charlotte PTSUNNY 78 56 46 SW13 29.98F Dallas DFW MOSUNNY 71 55 56 VRB5 29.87F Houston Bush MOSUNNY 84 65 52 S9 29.84F Wash National PTSUNNY 73 58 59 N5 29.94F Wash Dulles MOSUNNY 74 54 49 VRB3 29.93F Baltimore PTSUNNY 69 55 60 E7 29.95F Philadelphia PTSUNNY 59 52 77 SW5 29.98F Newark PTSUNNY 55 48 77 SW8 29.99S Laguardia PTSUNNY 47 42 83 NE9 29.99F J F K PTSUNNY 57 49 74 VRB7 30.00F Boston CLOUDY 43 42 97 N6 30.00F Pittsburg CLOUDY 67 48 50 SW8 29.92S Akron PTSUNNY 64 47 53 W9 29.91F Cleveland CLOUDY 62 48 60 SW13 29.93F Cincinnati PTSUNNY 68 55 63 S8 29.86F Columbus CLOUDY 64 53 65 S7 29.90F Detroit CLOUDY 62 49 62 SW9 29.89S Chicago O`Hare LGT RAIN 49 42 77 NE7 29.91R Minneapolis PTSUNNY 59 31 34 NE8 29.94F Indianapolis CLOUDY 59 53 80 E8 29.84F Toronto Canada CLOUDY 57 52 82 W12G18 29.85S $$

USA.gov is the U.S. government's official web portal to all federal, state and local government web resources and services.